Location: Newark
(43.9494°N, 6.8108°E)
Time: 14:00:30
(UTC+00:00)

Altair - Visible Passes

Search period start: 16 October 2019 00:00
Search period end: 26 October 2019 00:00
Orbit: 1501 x 1683 km, 47.2° (Epoch: 15 October)

Date Brightness Start Highest point End Pass type
(mag) Time Alt. Az. Time Alt. Az. Time Alt. Az.
16 Oct 8.5 18:19:16 10° WNW 18:28:38 45° SW 18:38:01 10° SSE visible
16 Oct 9.7 20:28:33 10° WSW 20:31:27 12° WSW 20:34:21 10° SW visible
17 Oct 8.5 17:54:01 10° WNW 18:03:30 48° SW 18:13:02 10° SSE visible
17 Oct 9.7 20:02:14 10° W 20:06:27 13° WSW 20:10:39 10° SSW visible
18 Oct 8.4 17:28:47 10° WNW 17:38:21 51° SW 17:48:02 10° SSE visible
18 Oct 9.7 19:36:18 10° W 19:41:25 15° WSW 19:46:33 10° SSW visible
19 Oct 8.4 17:03:34 10° WNW 17:13:13 55° SW 17:22:59 10° SE visible
19 Oct 9.7 19:10:34 10° W 19:16:23 17° SW 19:22:15 10° SSW visible
20 Oct 9.7 18:44:56 10° W 18:51:21 19° SW 18:57:48 10° SSW visible
21 Oct 9.7 18:19:24 10° W 18:26:18 21° SW 18:33:17 10° S visible
22 Oct 9.6 17:53:56 10° W 18:01:15 24° SW 18:08:39 10° S visible
23 Oct 9.6 17:28:30 10° WNW 17:36:11 26° SW 17:43:58 10° S visible
24 Oct 9.6 17:03:07 10° WNW 17:11:07 28° SW 17:19:13 10° S visible
